Location: Unspecified
(0.0000°N, 0.0000°E)
Time: 14:19:27
(UTC+01:00)

Meteor PRIRODA - Visible Passes

Search period start: 23 November 2017 00:00
Search period end: 03 December 2017 00:00
Orbit: 494 x 513 km, 97.4° (Epoch: 22 November)

Date Brightness Start Highest point End Pass type
(mag) Time Alt. Az. Time Alt. Az. Time Alt. Az.
23 Nov 6.9 04:16:03 12° ESE 04:16:03 12° ESE 04:17:08 10° ESE visible
23 Nov 5.5 05:50:48 14° WSW 05:50:48 14° WSW 05:51:50 10° WSW visible
24 Nov 4.8 05:32:10 26° WSW 05:32:10 26° WSW 05:34:15 10° SW visible
25 Nov 4.2 05:13:32 44° SSW 05:13:32 44° SSW 05:16:07 10° SSW visible
26 Nov 4.8 04:54:54 40° SE 04:54:54 40° SE 04:57:36 10° S visible
27 Nov 6.0 04:36:16 23° ESE 04:36:16 23° ESE 04:38:37 10° SSE visible
28 Nov 6.9 04:17:37 12° ESE 04:17:37 12° ESE 04:18:47 10° SE visible
28 Nov 5.6 05:52:23 13° WSW 05:52:23 13° WSW 05:53:10 10° WSW visible
29 Nov 4.9 05:33:44 24° WSW 05:33:44 24° WSW 05:35:39 10° SW visible
30 Nov 4.4 05:15:07 39° SSW 05:15:07 39° SSW 05:17:32 10° SSW visible
01 Dec 4.8 04:56:28 38° SSE 04:56:28 38° SSE 04:59:02 10° S visible
02 Dec 5.9 04:37:50 23° ESE 04:37:50 23° ESE 04:40:05 10° SSE visible
